Date String (YYYY-MM-DD hh:mm:ss) UTC,Instrument flags,Ambient pressure (hPa),Sample flow (lpm),Bypass flow (lpm),Sample temperature (°C),Ambient temperature (°C),ASC tube jacket temperature (°C),LED temperature (°C),Box temperature (°C),Sample RH (%),Span deviation,Mass concentration (μg/m³),Mass concentration (μg/m³),Mass concentration (μg/m³)
DateTimeUTC,F1_M11,P_M11,Q1_M11,Q2_M11,T1_M11,T2_M11,T3_M11,T4_M11,T5_M11,U1_M11,ZSPAN_M11,X0_M11,X2_M11,X1_M11
2022-02-22 14:00:00,,0824.6,5.00,0.00,22.4,21.7,00.0,31.4,24.0,03.2,0002.0,0008.44,0004.76,0004.25
2022-02-22 14:01:00,,0824.5,5.01,0.00,22.3,21.3,00.0,31.3,23.8,03.3,0002.4,0008.35,0004.75,0004.24
2022-02-22 14:02:00,,0824.8,5.00,0.00,22.2,20.9,00.0,31.3,23.7,03.3,0003.1,0008.05,0004.73,0004.22
2022-02-22 14:03:00,,0825.1,5.00,0.00,22.2,21.5,00.0,31.3,23.7,03.3,0002.9,0008.10,0004.75,0004.23
2022-02-22 14:04:00,,0825.0,5.01,0.00,22.3,22.3,00.0,31.3,24.0,03.3,0002.2,0008.14,0004.73,0004.21
2022-02-22 14:05:00,,0824.7,5.00,0.00,22.4,23.0,00.0,31.4,24.3,03.2,0002.1,0008.07,0004.70,0004.20
2022-02-22 14:06:00,,0824.7,4.98,0.00,22.6,23.1,00.0,31.4,24.4,03.2,0002.5,0008.25,0004.68,0004.18
2022-02-22 14:07:00,,0824.7,5.01,0.00,22.5,22.7,00.0,31.4,24.3,03.2,0002.2,0008.37,0004.69,0004.18
2022-02-22 14:08:00,,0825.1,4.98,0.00,22.4,22.1,00.0,31.4,24.1,03.3,0002.4,0008.51,0004.69,0004.17
2022-02-22 14:09:00,,0825.2,5.01,0.00,22.4,21.6,00.0,31.4,23.9,03.3,0002.5,0008.55,0004.69,0004.17
2022-02-22 14:10:00,,0825.1,5.00,0.00,22.3,21.3,00.0,31.3,23.8,03.3,0002.7,0008.47,0004.69,0004.18
2022-02-22 14:11:00,,0825.0,4.99,0.00,22.2,21.0,00.0,31.3,23.7,03.3,0002.8,0008.43,0004.71,0004.20
2022-02-22 14:12:00,,0825.1,5.00,0.00,22.2,21.5,00.0,31.3,23.7,03.4,0003.1,0008.43,0004.70,0004.19
2022-02-22 14:13:00,,0825.3,4.99,0.00,22.3,22.3,00.0,31.3,24.0,03.3,0002.6,0008.38,0004.69,0004.19
2022-02-22 14:14:00,,0825.3,5.02,0.00,22.4,23.0,00.0,31.4,24.3,03.3,0002.5,0008.41,0004.69,0004.19
2022-02-22 14:15:00,,0825.3,4.98,0.00,22.6,23.1,00.0,31.4,24.4,03.3,0002.9,0008.40,0004.71,0004.19
2022-02-22 14:16:00,,0825.3,5.00,0.00,22.5,22.7,00.0,31.4,24.3,03.3,0003.1,0008.42,0004.73,0004.21
2022-02-22 14:17:00,,0825.3,5.00,0.00,22.5,22.3,00.0,31.4,24.1,03.3,0002.5,0008.36,0004.78,0004.22
2022-02-22 14:18:00,,0825.2,5.00,0.00,22.4,21.9,00.0,31.4,24.0,03.4,0002.5,0008.33,0004.80,0004.22
2022-02-22 14:19:00,,0825.1,5.00,0.00,22.3,21.4,00.0,31.3,23.8,03.4,0002.2,0008.23,0004.80,0004.23
2022-02-22 14:20:00,,0825.2,5.02,0.00,22.2,20.9,00.0,31.3,23.7,03.4,0002.1,0008.39,0004.84,0004.24
2022-02-22 14:21:00,,0825.3,4.99,0.00,22.2,21.3,00.0,31.3,23.6,03.4,0001.8,0008.65,0004.81,0004.23
2022-02-22 14:22:00,,0825.2,4.99,0.00,22.2,22.2,00.0,31.3,23.9,03.4,0001.6,0008.64,0004.80,0004.23
2022-02-22 14:23:00,,0825.1,5.00,0.00,22.4,22.9,00.0,31.3,24.1,03.4,0001.3,0008.66,0004.83,0004.25
2022-02-22 14:24:00,,0825.2,5.00,0.00,22.5,23.1,00.0,31.4,24.3,03.3,0001.2,0008.63,0004.83,0004.24
2022-02-22 14:25:00,,0825.4,5.01,0.00,22.4,22.6,00.0,31.4,24.2,03.3,0001.0,0008.66,0004.84,0004.25
2022-02-22 14:26:00,,0825.2,4.99,0.00,22.4,22.1,00.0,31.3,24.0,03.3,0001.2,0008.65,0004.83,0004.25
2022-02-22 14:27:00,,0824.8,5.00,0.00,22.3,21.7,00.0,31.3,23.9,03.4,0001.0,0008.64,0004.84,0004.27
2022-02-22 14:28:00,,0825.0,5.00,0.00,22.2,21.4,00.0,31.3,23.7,03.4,0000.8,0008.50,0004.82,0004.29
2022-02-22 14:29:00,,0825.2,5.00,0.00,22.1,21.3,00.0,31.3,23.6,03.4,0000.6,0008.34,0004.78,0004.30
2022-02-22 14:30:00,,0825.3,5.01,0.00,22.2,21.9,00.0,31.3,23.8,03.4,0000.7,0008.42,0004.80,0004.31
2022-02-22 14:31:00,,0825.3,4.99,0.00,22.3,22.7,00.0,31.3,24.1,03.4,0000.4,0008.17,0004.79,0004.32
2022-02-22 14:32:00,,0825.1,5.01,0.00,22.4,23.3,00.0,31.3,24.3,03.4,0000.6,0007.84,0004.78,0004.31
2022-02-22 14:33:00,,0825.0,5.00,0.00,22.5,23.0,00.0,31.3,24.3,03.4,0000.5,0007.78,0004.74,0004.30
2022-02-22 14:34:00,,0825.2,4.99,0.00,22.4,22.6,00.0,31.4,24.1,03.4,0000.1,0007.77,0004.73,0004.30
2022-02-22 14:35:00,,0825.1,5.00,0.00,22.4,22.0,00.0,31.3,24.0,03.4,0000.3,0007.77,0004.73,0004.30
2022-02-22 14:36:00,,0824.9,5.01,0.00,22.3,21.4,00.0,31.3,23.8,03.5,0000.0,0007.74,0004.72,0004.30
2022-02-22 14:37:00,,0824.9,5.01,0.00,22.1,20.9,00.0,31.2,23.6,03.5,-000.3,0007.77,0004.73,0004.30
2022-02-22 14:38:00,,0825.1,5.00,0.00,22.1,21.2,00.0,31.2,23.5,03.5,-000.1,0007.83,0004.72,0004.28
2022-02-22 14:39:00,,0825.1,4.99,0.00,22.2,22.2,00.0,31.3,23.8,03.5,-000.5,0007.91,0004.74,0004.27
2022-02-22 14:40:00,,0825.2,5.00,0.00,22.3,23.0,00.0,31.3,24.1,03.5,-000.7,0007.98,0004.75,0004.27
2022-02-22 14:41:00,,0825.1,5.01,0.00,22.5,23.3,00.0,31.3,24.3,03.5,-000.7,0007.83,0004.71,0004.26
2022-02-22 14:42:00,,0825.1,4.99,0.00,22.5,22.6,00.0,31.3,24.2,03.5,-000.5,0007.75,0004.67,0004.26
2022-02-22 14:43:00,,0825.2,5.00,0.00,22.4,22.0,00.0,31.3,24.0,03.5,-000.5,0007.74,0004.68,0004.27
2022-02-22 14:44:00,,0825.4,5.00,0.00,22.3,21.5,00.0,31.3,23.9,03.4,-000.2,0007.79,0004.71,0004.29
2022-02-22 14:45:00,,0825.4,5.00,0.00,22.2,21.3,00.0,31.3,23.8,03.4,0000.7,0007.84,0004.74,0004.31
2022-02-22 14:46:00,,0825.4,5.01,0.00,22.2,21.0,00.0,31.2,23.7,03.5,0001.3,0007.88,0004.78,0004.34
2022-02-22 14:47:00,,0825.4,5.00,0.00,22.2,21.4,00.0,31.2,23.7,03.4,0002.0,0007.86,0004.78,0004.35
2022-02-22 14:48:00,,0825.4,5.00,0.00,22.3,22.3,00.0,31.3,24.0,03.4,0001.9,0007.80,0004.77,0004.35
2022-02-22 14:49:00,,0825.4,5.00,0.00,22.4,23.1,00.0,31.3,24.3,03.4,0002.1,0008.00,0004.78,0004.36
2022-02-22 14:50:00,,0825.4,5.00,0.00,22.5,23.0,00.0,31.3,24.3,03.3,0002.7,0008.11,0004.79,0004.37
2022-02-22 14:51:00,,0825.4,5.00,0.00,22.5,22.6,00.0,31.3,24.3,03.3,0002.6,0008.10,0004.80,0004.38
2022-02-22 14:52:00,,0825.4,5.00,0.00,22.4,22.1,00.0,31.3,24.2,03.3,0002.8,0008.18,0004.84,0004.40
2022-02-22 14:53:00,,0825.4,5.00,0.00,22.4,21.8,00.0,31.3,24.0,03.3,0002.7,0008.28,0004.89,0004.42
2022-02-22 14:54:00,,0825.5,5.00,0.00,22.3,21.5,00.0,31.3,23.9,03.3,0002.4,0008.39,0004.94,0004.44
2022-02-22 14:55:00,,0825.4,5.01,0.00,22.2,21.3,00.0,31.3,23.8,03.3,0002.7,0008.48,0004.97,0004.44
2022-02-22 14:56:00,,0825.3,4.99,0.00,22.3,22.0,00.0,31.3,23.9,03.3,0002.1,0008.48,0004.98,0004.44
2022-02-22 14:57:00,,0825.3,5.00,0.00,22.4,22.7,00.0,31.3,24.1,03.3,0002.0,0008.51,0004.97,0004.45
2022-02-22 14:58:00,,0825.4,5.02,0.00,22.5,23.4,00.0,31.4,24.4,03.3,0001.1,0008.69,0004.99,0004.45
2022-02-22 14:59:00,,0825.5,4.98,0.00,22.6,23.2,00.0,31.4,24.5,03.2,0001.6,0008.73,0005.01,0004.45
